sat.trackr.live / text

‹ back to catalog

GEESAT-1 03

NORAD 52787 · 2022-058C

PAYLOAD ACTIVE UNKNOWN

§ Identity

Operator
Country
PRC
Launch date
2022-06-02
Launch site
XICLF
Launch vehicle
Mass (kg)
RCS (m²)

External: N2YO · Heavens-Above · Gunter

§ Orbital elements

Epoch: 2026-09-20T22:41:04.559424Z

Period
97.19 min
Inclination
49.9863°
Eccentricity
0.0008214
Mean motion
14.81618475 rev/d
Perigee alt
618.5 km
Apogee alt
630.0 km
Semi-major
7,002.4 km
B*
1.3657e-4
RAAN
119.0120°
Arg perigee
109.9297°
Mean anomaly
250.2526°
Rev number
23,413

§ Raw data

GEESAT-1 031 52787U 22058C   26263.94519166  .00000862  00000+0  13657-3 0  99962 52787  49.9863 119.0120 0008214 109.9297 250.2526 14.81618475234136

JSON: /api/v1/satellites/52787 · /tle

For live sub-satellite position, see the globe view (requires WebGL).

§ Visibility from observer

Set your observer location to see the next 7 days of passes ≥ 10°. The values pass through the URL so the page stays shareable.

No JS? Fill the form by hand. The geolocation button needs JavaScript.